1363478434336,99.9402
1363478494336,100.108
1363478554336,100.180
1363478614336,100.356
1363478674336,99.7803
1363478734336,99.8926
1363478794336,100.173
1363478854336,100.058
1363478914336,100.583
1363478974336,100.624
1363479034336,100.174
1363479094336,100.431
1363479154336,100.350
1363479214336,99.9409
1363479274336,100.830
1363479334336,100.931
1363479394336,100.665
1363479454336,100.164
1363479514336,100.902
1363479574336,100.686
1363479634336,100.501
1363479694336,100.531
1363479754336,100.291
1363479814336,100.520
1363479874336,100.258
1363479934336,100.244
1363479994336,100.845
1363480054336,100.613
1363480114336,100.566
1363480174336,100.242
1363480234336,100.211
1363480294336,100.712
1363480354336,100.282
1363480414336,100.556
1363480474336,100.352
1363480534336,100.395
1363480594336,100.770
1363480654336,100.744
1363480714336,100.251
1363480774336,100.650
1363480834336,100.718
1363480894336,100.396
1363480954336,100.609
1363481014336,100.553
1363481074336,100.884
1363481134336,100.092
1363481194336,100.049
1363481254336,101.089
1363481314336,100.555
1363481374336,100.044
1363481434336,100.585
1363481494336,100.520
1363481554336,100.497
1363481614336,101.279
1363481674336,100.895
1363481734336,100.441
1363481794336,100.659
1363481854336,100.224
1363481914336,100.573
1363481974336,100.606
1363482034349,100.400
1363482094349,100.734
1363482154349,101.002
1363482214349,100.533
1363482274349,100.724
1363482334349,100.782
1363482394349,101.074
1363482454349,100.853
1363482514349,101.113
1363482574349,100.800
1363482634349,100.444
1363482694349,100.590
1363482754349,100.710
1363482814349,101.167
1363482874349,101.032
1363482934349,101.141
1363482994349,100.900
1363483054349,101.213
1363483114349,101.195
1363483174349,101.019
1363483234349,100.671
1363483294349,100.988
1363483354349,100.630
1363483414349,100.833
1363483474349,100.719
1363483534349,100.543
1363483594349,101.074
1363483654349,101.062
1363483714349,100.592
1363483774349,100.692
1363483834349,100.722
1363483894349,100.838
1363483954349,100.987
1363484014349,100.330
1363484074349,100.366
1363484134349,100.331
1363484194349,101.615
1363484254349,100.640
1363484314349,100.926
1363484374349,100.856
1363484434349,100.366
1363484494349,100.628
1363484554349,100.714
1363484614349,100.697
1363484674349,100.561
1363484734349,100.678
1363484794349,100.624
1363484854349,100.700
1363484914349,100.605
1363484974349,100.183
1363485034349,100.990
1363485094349,100.384
1363485154349,100.689
1363485214349,100.189
1363485274349,100.934
1363485334349,100.863
1363485394349,100.474
1363485454349,101.001
1363485514349,100.480
1363485574349,100.629
1363485634361,100.965
1363485694361,100.976
1363485754361,100.544
1363485814361,100.769
1363485874361,100.409
1363485934361,100.639
1363485994361,100.817
1363486054361,100.730
1363486114361,100.780
1363486174361,100.844
1363486234361,100.874
1363486294361,100.734
1363486354361,100.487
1363486414361,100.760
1363486474361,100.519
1363486534361,100.938
1363486594361,100.939
1363486654361,100.916
1363486714361,100.423
1363486774361,100.679
1363486834361,100.866
1363486894361,100.160
1363486954361,100.621
1363487014361,100.684
1363487074361,100.898
1363487134361,100.725
1363487194361,100.792
1363487254361,100.690
1363487314361,100.884
1363487374361,101.320
1363487434361,100.819
1363487494361,100.746
1363487554361,101.154
1363487614361,100.837
1363487674361,100.824
1363487734361,100.498
1363487794361,100.588
1363487854361,100.640
1363487914361,101.312
1363487974361,101.016
1363488034361,100.744
1363488094361,100.956
1363488154361,101.065
1363488214361,100.902
1363488274361,101.117
1363488334361,100.855
1363488394361,100.762
1363488454361,100.678
1363488514361,100.462
1363488574361,100.630
1363488634361,100.820
1363488694361,100.817
1363488754361,100.111
1363488814361,101.001
1363488874361,100.360
1363488934361,100.534
1363488994361,100.534
1363489054361,100.316
1363489114361,100.472
1363489174361,100.937
1363489234373,100.819
1363489294373,101.079
1363489354373,100.461
1363489414373,100.879
1363489474373,100.350
1363489534373,100.268
1363489594373,100.315
1363489654373,100.721
1363489714373,100.254
1363489774373,100.869
1363489834373,100.694
1363489894373,100.664
1363489954373,100.630
1363490014373,100.633
1363490074373,100.324
1363490134373,100.659
1363490194373,100.015
1363490254373,100.447
1363490314373,100.953
1363490374373,100.512
1363490434373,101.282
1363490494373,100.962
1363490554373,100.910
1363490614373,100.847
1363490674373,100.680
1363490734373,100.672
1363490794373,100.827
1363490854373,100.340
1363490914373,100.632
1363490974373,100.970
1363491034373,100.443
1363491094373,100.724
1363491154373,100.226
1363491214373,100.738
1363491274373,100.277
1363491334373,100.642
1363491394373,100.394
1363491454373,100.971
1363491514373,100.215
1363491574373,100.722
1363491634373,101.041
1363491694373,100.790
1363491754373,100.769
1363491814373,100.841
1363491874373,100.281
1363491934373,100.487
1363491994373,100.282
1363492054373,100.890
1363492114373,100.219
1363492174373,100.411
1363492234373,100.184
1363492294373,100.658
1363492354373,100.027
1363492414373,100.501
1363492474373,100.683
1363492534373,100.173
1363492594373,100.612
1363492654373,100.548
1363492714373,100.357
1363492774373,100.415
1363492834386,100.586
1363492894386,100.454
1363492954386,101.185
1363493014386,100.467
1363493074386,100.088
1363493134386,100.452
1363493194386,100.637
1363493254386,100.833
1363493314386,100.632
1363493374386,100.606
1363493434386,100.239
1363493494386,100.827
1363493554386,100.647
1363493614386,100.590
1363493674386,100.715
1363493734386,100.755
1363493794386,100.479
1363493854386,100.592
1363493914386,100.420
1363493974386,101.175
1363494034386,101.002
1363494094386,100.898
1363494154386,100.030
1363494214386,100.761
1363494274386,100.893
1363494334386,101.074
1363494394386,100.313
1363494454386,100.921
1363494514386,100.795
1363494574386,100.758
1363494634386,100.353
1363494694386,100.917
1363494754386,100.470
1363494814386,101.033
1363494874386,100.844
1363494934386,101.003
1363494994386,100.439
1363495054386,100.799
1363495114386,100.579
1363495174386,101.148
1363495234386,100.743
1363495294386,101.102
1363495354386,100.888
1363495414386,101.311
1363495474386,100.830
1363495534386,101.305
1363495594386,101.038
1363495654386,101.153
1363495714386,101.044
1363495774386,100.848
1363495834386,101.075
1363495894386,100.855
1363495954386,101.119
1363496014386,100.576
1363496074386,100.552
1363496134386,101.101
1363496194386,100.898
1363496254386,101.095
1363496314386,100.843
1363496374386,100.502
1363496434398,100.567
1363496494398,100.673
1363496554398,100.787
1363496614398,101.097
1363496674398,101.270
1363496734398,100.621
1363496794398,101.159
1363496854398,100.954
1363496914398,100.420
1363496974398,100.586
1363497034398,100.849
1363497094398,101.017
1363497154398,100.601
1363497214398,100.540
1363497274398,100.959
1363497334398,100.931
1363497394398,100.890
1363497454398,100.813
1363497514398,100.706
1363497574398,100.215
1363497634398,100.015
1363497694398,100.634
1363497754398,100.626
1363497814398,100.473
1363497874398,100.883
1363497934398,100.559
1363497994398,100.755
1363498054398,100.720
1363498114398,100.124
1363498174398,100.250
1363498234398,100.350
1363498294398,100.313
1363498354398,100.147
1363498414398,101.687
1363498474398,100.569
1363498534398,100.118
1363498594398,100.572
1363498654398,99.8963
1363498714398,100.267
1363498774398,100.105
1363498834398,100.026
1363498894398,100.613
1363498954398,100.453
1363499014398,100.046
1363499074398,100.105
1363499134398,100.230
1363499194398,100.159
1363499254398,100.440
1363499314398,100.032
1363499374398,100.120
1363499434398,99.7626
1363499494398,100.579
1363499554398,99.8200
1363499614398,100.234
1363499674398,99.8020
1363499734398,100.248
1363499794398,100.039
1363499854398,99.8372
1363499914398,100.393
1363499974398,100.060
1363500034410,99.9634
1363500094410,99.8273
1363500154410,100.239
1363500214410,100.215
1363500274410,100.125
1363500334410,100.246
1363500394410,99.5957
1363500454410,99.9660
1363500514410,99.5734
1363500574410,99.7226
1363500634410,100.198
1363500694410,99.6460
1363500754410,99.7512
1363500814410,99.2124
1363500874410,99.6683
1363500934410,99.1607
1363500994410,99.8514
1363501054410,100.097
1363501114410,99.6882
1363501174410,99.6723
1363514314444,100.645
1363514374444,101.011
1363514434456,100.839
1363514494456,100.629
1363514554456,100.523
1363514614456,100.737
1363514674456,100.823
1363514734456,100.595
1363514794456,100.802
1363514854456,100.512
1363514914456,100.487
1363514974456,100.683
1363515034456,100.604
1363515094456,100.699
1363515154456,100.583
1363515214456,101.090
1363515274456,100.645
1363515334456,100.698
1363515394456,100.755
1363515454456,100.809
1363515514456,100.652
1363515574456,100.569
1363515634456,100.390
1363515694456,100.716
1363515754456,100.384
1363515814456,100.470
1363515874456,100.451
1363515934456,101.249
1363515994456,100.683
1363516054456,100.604
1363516114456,100.315
1363516174456,100.731
1363516234456,100.444
1363516294456,100.474
1363516354456,100.665
1363516414456,100.549
1363516474456,100.275
1363516534456,100.079
1363516594456,100.210
1363516654456,100.518
1363516714456,100.194
1363516774456,100.340
1363516834456,100.459
1363516894456,99.7670
1363516954456,100.466
1363517014456,100.657
1363517074456,99.9117
1363517134456,100.410
1363517194456,100.254
1363517254456,100.675
1363517314456,100.145
1363517374456,100.327
1363517434456,100.370
1363517494456,100.347
1363517554456,100.222
1363517614456,100.563
1363517674456,100.116
1363517734456,100.191
1363517794456,100.378
1363517854456,99.8939
1363517914456,100.463
1363517974456,100.113
1363518034468,100.679
1363518094468,100.187
1363518154468,99.8476
1363518214468,99.8518
1363518274468,100.163
1363518334468,99.8698
1363518394468,100.146
1363518454468,100.356
1363518514468,99.7254
1363518574468,99.8046
1363518634468,100.056
1363518694468,99.6529
1363518754468,99.8005
1363518814468,100.054
1363518874468,99.8325
1363518934468,99.8283
1363518994468,99.6112
1363519054468,100.026
1363519114468,99.7786
1363519174468,99.7018
1363519234468,99.4320
1363519294468,99.4500
1363519354468,99.5666
1363519414468,99.2827
1363519474468,99.8808
1363519534468,100.179
1363519594468,100.164
1363519654468,99.5441
1363519714468,99.4111
1363519774468,99.9109
1363519834468,99.4535
1363519894468,99.4347
1363519954468,99.8692
1363520014468,100.257
1363520074468,99.6702
1363520134468,100.014
1363520194468,99.5599
1363520254468,99.5248
1363520314468,99.8751
1363520374468,99.7496
1363520434468,99.8683
1363520494468,99.6871
1363520554468,100.314
1363520614468,99.6640
1363520674468,99.6932
1363520734468,99.8523
1363520794468,99.7492
1363520854468,99.6401
1363520914468,100.261
1363520974468,100.204
1363521034468,99.9060
1363521094468,99.8664
1363521154468,100.092
1363521214468,99.6198
1363521274468,99.6461
1363521334468,99.6601
1363521394468,99.8089
1363521454468,100.048
1363521514468,99.7112
1363521574468,99.4759
1363521634481,99.8084
1363521694481,99.7302
1363521754481,99.6765
1363521814481,99.1407
1363521874481,99.5921
1363521934481,99.5734
1363521994481,100.150
1363522054481,99.6200
1363522114481,99.7314
1363522174481,99.5686
1363522234481,99.6656
1363522294481,99.5544
1363522354481,100.069
1363522414481,99.7195
1363522474481,99.6932
1363522534481,99.4461
1363522594481,99.4039
1363522654481,99.6544
1363522714481,99.6282
1363522774481,99.6726
1363522834481,99.6874
1363522894481,99.0591
1363522954481,99.5298
1363523014481,99.7836
1363523074481,99.4424
1363523134481,99.9163
1363523194481,99.3692
1363523254481,99.3773
1363523314481,99.6878
1363523374481,99.5364
1363523434481,99.1343
1363523494481,99.0644
1363523554481,99.2630
1363523614481,98.7887
1363523674481,99.2997
1363523734481,99.3990
1363523794481,99.3151
1363523854481,99.3007
1363523914481,99.4995
1363523974481,99.2020
1363524034481,99.0250
1363524094481,98.8879
1363524154481,99.9093
1363524214481,99.3786
1363524274481,99.7930
1363524334481,99.4541
1363524394481,99.3342
1363524454481,99.7903
1363524514481,99.3495
1363524574481,99.4915
1363524634481,99.3955
1363524694481,99.8644
1363524754481,100.008
1363524814481,99.3065
1363524874481,100.320
1363524934481,99.2249
1363524994481,99.2701
1363525054481,99.5444
1363525114481,99.1228
1363525174481,99.3524
1363525234493,99.3392
1363525294493,99.3321
1363525354493,99.5688
1363525414493,99.0005
1363525474493,99.5412
1363525534493,98.9699
1363525594493,98.9125
1363525654493,99.3995
1363525714493,99.0671
1363525774493,99.0189
1363525834493,98.7841
1363525894493,98.8302
1363525954493,99.1760
1363526014493,98.5325
1363526074493,98.5107
1363526134493,99.0538
1363526194493,98.8624
1363526254493,98.9793
1363526314493,98.5413
1363526374493,98.7157
1363526434493,98.7122
1363526494493,98.5598
1363526554493,98.5640
1363526614493,98.1308
1363527754493,98.4140
1363527814493,97.9651
1363527874493,98.5239
1363527934493,98.1521
1363527994493,98.3648
1363528054493,98.2382
1363528114493,98.0225
1363528174493,98.2180
1363528234493,98.2488
1363528294493,98.1532
1363528354493,98.3936
1363528414493,98.0653
1363528474493,98.1169
1363528534493,98.1373
1363528594493,98.0894
1363528654493,97.9222
1363528714493,98.5892
1363528774493,98.3343
1363528834506,98.6917
1363528894506,98.2574
1363528954506,98.3141
1363529014506,97.9803
1363529074506,97.3841
1363529134506,98.2629
1363529194506,98.0104
1363529254506,97.9979
1363529314506,97.7930
1363529374506,98.3375
1363529434506,98.0297
1363529494506,97.9343
1363529554506,98.1292
1363529614506,98.2019
1363529674506,97.8213
1363529734506,98.4068
1363529794506,97.8472
1363529854506,97.9168
1363529914506,98.6066
1363529974506,97.9411
1363530034506,98.0447
1363530094506,97.8227
1363530154506,98.4014
1363530214506,97.8529
1363530274506,98.0574
1363530334506,98.1800
1363530394506,97.8714
1363530454506,98.1998
1363530514506,98.1945
1363530574506,98.5155
1363530634506,98.0650
1363530694506,98.4826
1363530754506,98.3063
1363530814506,97.7787
1363530874506,98.1327
1363530934506,98.3094
1363530994506,98.3696
1363531054506,98.5644
1363531114506,97.9472
1363531174506,97.9762
1363531234506,98.4535
1363531294506,98.7227
1363531354506,98.2225
1363531414506,98.7474
1363531474506,98.3051
1363531534506,98.6327
1363531594506,98.2827
1363531654506,98.3087
1363531714506,97.8498
1363531774506,98.2349
1363531834506,98.3493
1363531894506,98.3787
1363531954506,97.9427
1363532014506,97.9469
1363532074506,97.9661
1363532134506,98.3527
1363532194506,97.7948
1363532254506,85.1926
1363532314506,96.4189
1363532374506,96.3298
1363532434518,96.9985
1363532494518,79.2441
1363532554518,90.3280
1363532614518,96.2000
1363532674518,83.5331
1363532734518,97.7167
1363532794518,97.8870
1363532854518,97.6855
1363532914518,97.7744
1363532974518,97.5670
1363533034518,97.6805
1363533094518,97.5977
1363533154518,97.3183
1363533214518,97.6200
1363533274518,97.5309
1363533334518,97.6535
1363533394518,98.0474
1363533454518,97.9795
1363533514518,97.6221
1363533574518,97.3403
1363533634518,97.4686
1363533694518,97.5833
1363533754518,97.2855
1363533814518,97.3228
1363533874518,97.9858
1363533934518,97.8625
1363533994518,97.8435
1363534054518,98.0456
1363534114518,97.6020
1363534174518,97.6657
1363534234518,97.5932
1363534294518,98.0596
1363534354518,97.5646
1363534414518,98.0369
1363534474518,97.7043
1363534534518,98.1471
1363534594518,97.7389
1363534654518,97.7840
1363534714518,97.7036
1363534774518,98.4896
1363534834518,97.9803
1363534894518,98.0365
1363534954518,98.0601
1363535014518,98.0288
1363535074518,97.9262
1363535134518,97.7688
1363535194518,98.4235
1363535254518,98.4113
1363535314518,97.8965
1363535374518,98.3049
1363535434518,98.3256
1363535494518,98.1008
1363535554518,98.7295
1363535614518,99.2963
1363535674518,98.7013
1363535734518,99.0340
1363535794518,99.6269
1363535854518,98.8877
1363535914518,98.7810
1363535974518,98.9386
1363536034531,98.9851
1363536094531,99.1870
1363536154531,99.5482
1363536214531,99.5772
1363536274531,99.0763
1363536334531,99.2464
1363536394531,98.7927
1363536454531,99.7507
1363536514531,99.4911
1363536574531,99.4833
1363536634531,99.7432
1363536694531,99.3176
1363536754531,99.8469
1363536814531,99.5750
1363536874531,99.4289
1363536934531,99.7993
1363536994531,100.024
1363537054531,99.4755
1363537114531,99.7273
1363537174531,99.8077
1363537234531,99.8260
1363537294531,99.2446
1363537354531,99.6465
1363537414531,99.7105
1363537474531,100.011
1363537534531,99.5844
1363537594531,99.9676
1363537654531,99.2263
1363537714531,99.4192
1363537774531,99.9440
1363537834531,99.1745
1363537894531,99.0877
1363537954531,99.5434
1363538014531,99.2205
1363538074531,99.6877
1363538134531,99.5301
1363538194531,99.3623
1363538254531,99.6238
1363538314531,98.8409
1363538374531,98.7097
1363538434531,99.3027
1363538494531,99.4313
1363538554531,99.9260
1363538614531,98.7725
1363538674531,99.3129
1363538734531,99.7968
1363538794531,99.0205
1363538854531,98.9354
1363538914531,99.5682
1363538974531,98.8556
1363539034531,99.3012
1363539094531,99.0013
1363539154531,99.4200
1363539214531,99.2956
1363539274531,99.2313
1363539334531,99.6890
1363539394531,99.0743
1363539454531,99.1030
1363539514531,98.8437
1363539574531,99.2272
1363539634543,98.5160
1363539694543,99.0982
1363539754543,99.3730
1363539814543,98.7788
1363539874543,99.4814
1363539934543,98.9020
1363539994543,98.9841
1363540054543,98.7935
1363540114543,98.7071
1363540174543,99.0762
1363540234543,99.3530
1363540294543,99.0649
1363540354543,98.9418
1363540414543,98.8550
1363540474543,99.0413
1363540534543,98.8332
1363540594543,98.5516
1363540654543,99.2548
1363540714543,98.7309
1363540774543,99.0551
1363540834543,98.8518
1363540894543,98.9973
1363540954543,99.1242
1363541014543,98.8820
1363541074543,98.6299
1363541134543,98.9716
1363541194543,99.1479
1363541254543,99.0447
1363541314543,98.6839
1363541374543,99.0393
1363541434543,99.2297
1363541494543,98.8417
1363541554543,98.6398
1363541614543,98.4856
1363541674543,98.5960
1363541734543,98.8571
1363541794543,98.2600
1363541854543,99.0763
1363541914543,98.7119
1363541974543,98.4602
1363542034543,98.6337
1363542094543,98.4392
1363542154543,98.8407
1363542214543,98.6027
1363542274543,98.5210
1363542334543,98.7548
1363542394543,98.9721
1363542454543,98.1896
1363542514543,98.5897
1363542574543,99.0730
1363542634543,98.2060
1363542694543,98.7047
1363542754543,98.4750
1363542814543,98.7005
1363542874543,98.9349
1363542934543,98.2678
1363542994543,97.6705
1363543054543,98.0447
1363543114543,98.1696
1363543174543,98.3502
1363543234555,98.1507
1363543294555,98.2711
1363543354555,98.3401
1363543414555,98.0207
1363543474555,98.1299
1363543534555,97.7784
1363543594555,97.9068
1363543654555,98.2658
1363543714555,98.5682
1363543774555,98.0460
1363543834555,98.0916
1363543894555,98.1868
1363543954555,98.2879
1363544014555,99.0703
1363544074555,98.7003
1363544134555,98.6103
1363544194555,99.1208
1363544254555,98.6127
1363544314555,98.9697
1363544374555,98.5902
1363544434555,99.0784
1363544494555,98.8978
1363544554555,99.3083
1363544614555,98.4951
1363544674555,98.3196
1363544734555,98.9773
1363544794555,98.4555
1363544854555,98.3112
1363544914555,99.0932
1363544974555,99.1335
1363545034555,99.5466
1363545094555,98.6118
1363545154555,98.5554
1363545214555,99.0424
1363545274555,98.5818
1363545334555,98.8034
1363545394555,98.5616
1363545454555,98.8593
1363545514555,99.0297
1363545574555,99.5053
1363545634555,99.3770
1363545694555,98.9718
1363545754555,98.9572
1363545814555,98.6650
1363545874555,98.9132
1363545934555,99.3923
1363545994555,98.6071
1363546054555,98.7411
1363546114555,99.0815
1363546174555,99.4913
1363546234555,99.4136
1363546294555,99.2752
1363546354555,99.2334
1363546414555,98.8401
1363546474555,99.2030
1363546534555,98.9403
1363546594555,99.3116
1363546654555,99.3195
1363546714555,99.2350
1363546774555,99.0115
1363546834567,98.7918
1363546894567,98.9828
1363546954567,98.9247
1363547014567,99.0611
1363547074567,99.3069
1363547134567,99.2412
1363547194567,99.0006
1363547254567,99.4132
1363547314567,99.5000
1363547374567,98.7795
1363547434567,99.2735
1363547494567,99.4029
1363547554567,98.8768
1363547614567,98.9411
1363547674567,98.8498
1363547734567,99.3400
1363547794567,99.3402
1363547854567,99.8431
1363547914567,98.8897
1363547974567,99.5470
1363548034567,99.3826
1363548094567,99.7528
1363548154567,99.6305
1363548214567,99.6680
1363548274567,99.6270
1363548334567,99.3765
1363548394567,99.3718
1363548454567,99.4246
1363548514567,99.2275
1363548574567,99.5483
1363548634567,99.3851
1363548694567,99.6282
1363548754567,99.6630
1363548814567,99.7258
1363548874567,99.3504
1363548934567,99.4135
1363548994567,99.5659
1363549054567,99.6076
1363549114567,100.361
1363549174567,99.7755
1363549234567,99.7198
1363549294567,100.049
1363549354567,100.071
1363549414567,99.5472
1363549474567,99.4819
1363549534567,99.5365
1363549594567,99.5096
1363549654567,99.3874
1363549714567,99.8033
1363549774567,99.6881
1363549834567,99.9202
1363549894567,99.5219
1363549954567,99.3232
1363550014567,99.5681
1363550074567,99.4831
1363550134567,99.7982
1363550194567,99.2502
1363550254567,99.8469
1363550314567,99.8756
1363550374567,99.6781
1363550434579,99.6023
1363550494579,99.8923
1363550554579,99.6945
1363550614579,99.6454
1363550674579,99.3626
1363550734579,99.5708
1363550794579,99.7298
1363550854579,99.9287
1363550914579,99.7740
1363550974579,99.6533
1363551034579,100.339
1363551094579,99.9265
1363551154579,99.6826
1363551214579,99.7261
1363551274579,100.182
1363551334579,99.9033
1363551394579,100.226
1363551454579,100.415
1363551514579,99.8969
1363551574579,99.9118
1363551634579,100.119
1363551694579,99.5448
1363551754579,99.7372
1363551814579,99.8921
1363551874579,99.5976
1363551934579,100.201
1363551994579,99.3324
1363552054579,99.1017
1363552114579,99.4968
1363552174579,99.5083
1363552234579,99.9003
1363552294579,99.6183
1363552354579,99.9388
1363552414579,99.4759
1363552474579,99.3910
1363552534579,99.1170
1363552594579,99.7098
1363552654579,99.5199
1363552714579,99.3468
1363552774579,99.0087
1363552834579,99.5664
1363552894579,99.0688
1363552954579,99.4568
1363553014579,99.8603
1363553074579,99.5586
1363553134579,99.4715
1363553194579,99.8949
1363553254579,99.2401
1363553314579,99.0469
1363553374579,99.2403
1363553434579,99.6209
1363553494579,99.1809
1363553554579,99.6666
1363553614579,99.5256
1363553674579,99.9370
1363553734579,99.5662
1363553794579,99.7007
1363553854579,99.6922
1363553914579,99.6935
1363553974579,98.9572
1363554034592,99.1400
1363554094592,99.7962
1363554154592,99.2339
1363554214592,99.5624
1363554274592,98.8073
1363554334592,99.4171
1363554394592,99.6161
1363554454592,99.0306
1363554514592,99.6864
1363554574592,98.9957
1363554634592,99.1880
1363554694592,99.4671
1363554754592,99.3313
1363554814592,99.2438
1363554874592,99.3423
1363554934592,99.3386
1363554994592,99.2960
1363555054592,98.8587
1363555114592,98.9186
1363555174592,98.8089
1363555234592,99.2587
1363555294592,99.0040
1363555354592,99.2855
1363555414592,99.1183
1363555474592,99.1684
1363555534592,99.6199
1363555594592,99.2384
1363555654592,99.9449
1363555714592,99.1744
1363555774592,98.6456
1363555834592,99.2419
1363555894592,98.8923
1363555954592,99.1481
1363556014592,99.0033
1363556074592,98.5210
1363556134592,98.6286
1363556194592,99.1060
1363556254592,98.7576
1363556314592,98.9352
1363556374592,99.1913
1363556434592,99.1834
1363556494592,99.5863
1363556554592,99.0877
1363556614592,99.0523
1363556674592,98.8729
1363556734592,98.4734
1363556794592,98.7883
1363556854592,99.3882
1363556914592,98.9951
1363556974592,98.8926
1363557034592,99.2314
1363557094592,98.9881
1363557154592,98.9010
1363557214592,98.8461
1363557274592,98.9810
1363557334592,99.1091
1363557394592,98.8264
1363557454592,99.1260
1363557514592,98.8500
1363557574592,98.8553
1363557634604,98.8140
1363557694604,98.6761
1363557754604,98.7322
1363557814604,98.7942
1363557874604,98.8510
1363557934604,99.1057